This is the latest recevied weather packets stored in our database for station/object KC3WWU. If no packets are shown the sender has not sent any weather packets the latest 10 day(s).
| Time | Temp. | Humidity | Pressure | Rain* | Wind** | Luminosity | Snow |
|---|---|---|---|---|---|---|---|
| 1777400616 | 9.44° C | 99% | 1013.9 hPa | 0 mm | - | 88 W/m² | - |
| 1777400315 | 10° C | 99% | 1013.9 hPa | 0 mm | - | 75 W/m² | - |
| 1777400009 | 9.44° C | 99% | 1013.8 hPa | 0 mm | - | 97 W/m² | - |
| 1777399707 | 9.44° C | 99% | 1013.5 hPa | 0 mm | - | 102 W/m² | - |
| 1777399403 | 9.44° C | 99% | 1013.6 hPa | 0 mm | - | 87 W/m² | - |
| 1777399101 | 9.44° C | 99% | 1013.9 hPa | 0 mm | - | 70 W/m² | - |
| 1777398798 | 9.44° C | 99% | 1013.8 hPa | 0 mm | - | 100 W/m² | - |
| 1777398496 | 9.44° C | 99% | 1013.6 hPa | 0 mm | - | 75 W/m² | - |
| 1777398192 | 9.44° C | 99% | 1013.9 hPa | 0 mm | - | 82 W/m² | - |
| 1777397888 | 9.44° C | 99% | 1013.9 hPa | 0 mm | - | 70 W/m² | - |
| 1777397584 | 9.44° C | 99% | 1014.1 hPa | 0 mm | - | 75 W/m² | - |
| 1777397280 | 9.44° C | 99% | 1014 hPa | 0 mm | - | 87 W/m² | - |
| 1777396977 | 9.44° C | 99% | 1014 hPa | 0 mm | - | 89 W/m² | - |
| 1777396674 | 9.44° C | 99% | 1014.1 hPa | 0 mm | - | 80 W/m² | - |
| 1777396371 | 9.44° C | 99% | 1013.9 hPa | 0 mm | - | 88 W/m² | - |
| 1777396067 | 9.44° C | 99% | 1014 hPa | 1.78 mm | - | 87 W/m² | - |
| 1777395763 | 9.44° C | 99% | 1013.8 hPa | 1.78 mm | - | 68 W/m² | - |
| 1777395458 | 9.44° C | 99% | 1013.9 hPa | 0 mm | - | 76 W/m² | - |
| 1777395156 | 9.44° C | 99% | 1014 hPa | 0 mm | - | 86 W/m² | - |
| 1777394853 | 8.89° C | 99% | 1014 hPa | 0 mm | - | 73 W/m² | - |
| 1777394549 | 8.89° C | 99% | 1013.9 hPa | 0 mm | - | 59 W/m² | - |
| 1777394246 | 9.44° C | 99% | 1013.9 hPa | 0 mm | - | 63 W/m² | - |
| 1777393941 | 9.44° C | 98% | 1014 hPa | 0 mm | - | 78 W/m² | - |
| 1777393641 | 8.89° C | 98% | 1013.8 hPa | 0 mm | - | 84 W/m² | - |
| 1777393336 | 8.89° C | 98% | 1013.9 hPa | 0 mm | - | 100 W/m² | - |
* Rain latest hour (hover to see other rain measurements)
** Current wind speed in m/s (hover to see current wind gust speed)